Weather History for PASI - September, 2011

Change the Weather History Date:

Tuesday, September 27, 2011

  Actual Average Record
Temperature  
Mean Temperature 50 °F -  
Max Temperature 55 °F 55 °F 64 °F (1976)
Min Temperature 46 °F 46 °F 33 °F (1983)
Degree Days  
Heating Degree Days 15    
Moisture  
Dew Point 43 °F    
Average Humidity 80    
Maximum Humidity 93    
Minimum Humidity 66    
Precipitation  
Precipitation 0.23 in - - ()
Sea Level Pressure  
Sea Level Pressure 29.58 in    
Wind  
Wind Speed 3 mph (SE)    
Max Wind Speed 18 mph    
Max Gust Speed 22 mph    
Visibility 10 miles    
Events Rain    
Averages and records for this station are not official NWS values.
T = Trace of Precipitation, MM = Missing Value Source: NWS Daily Summary

Daily Weather History Graph

Daily Weather History Graph

Search for Another Location

Airport or City:

Trip Planner

Search our weather history database for the weather conditions in past years. The results will help you decide how hot, cold, wet, or windy it might be!

Date:

Astronomy

Sep. 27, 2011 Rise Set
Actual Time 6:56 AM AKDT 6:47 PM AKDT
Civil Twilight 6:18 AM AKDT 7:25 PM AKDT
Nautical Twilight 5:33 AM AKDT 8:09 PM AKDT
Astronomical Twilight 4:45 AM AKDT 8:57 PM AKDT
Moon 7:38 AM AKDT (9/27) 6:17 PM AKDT (9/27)
Length of Visible Light 13h 06m
Length of Day
11h 50m
New Moon, 0% of the Moon is Illuminated
Sep 27
New Moon
Oct 3
First Quarter
Oct 11
Full
Oct 19
Last Quarter
Oct 26
New

Hourly Weather History & Observations

Time (AKDT) Temp. Windchill Dew Point Humidity Pressure Visibility Wind Dir Wind Speed Gust Speed Precip Events Conditions
12:53 AM 48.0 °F - 39.0 °F 71% 29.15 in 10.0 mi Calm Calm - N/A   Overcast
1:53 AM 46.9 °F - 39.0 °F 74% 29.16 in 10.0 mi Calm Calm - N/A   Overcast
2:53 AM 48.0 °F - 39.9 °F 74% 29.18 in 10.0 mi Calm Calm - N/A   Overcast
3:53 AM 48.0 °F - 41.0 °F 77% 29.19 in 10.0 mi SE 3.5 mph - N/A   Overcast
4:53 AM 48.0 °F - 41.0 °F 77% 29.22 in 10.0 mi Calm Calm - N/A   Overcast
5:53 AM 48.0 °F - 41.0 °F 77% 29.25 in 10.0 mi Calm Calm - N/A   Overcast
6:53 AM 48.9 °F - 42.1 °F 77% 29.29 in 10.0 mi Calm Calm - N/A   Overcast
7:53 AM 46.9 °F - 43.0 °F 86% 29.32 in 10.0 mi Calm Calm - 0.00 in   Overcast
8:53 AM 48.0 °F - 44.1 °F 86% 29.37 in 10.0 mi Calm Calm - N/A   Overcast
9:53 AM 48.9 °F - 44.1 °F 83% 29.41 in 10.0 mi ESE 3.5 mph - N/A   Overcast
10:53 AM 50.0 °F - 43.0 °F 77% 29.46 in 10.0 mi Calm Calm - N/A   Overcast
11:53 AM 52.0 °F - 44.1 °F 74% 29.51 in 10.0 mi Calm Calm - N/A   Overcast
12:53 PM 53.1 °F - 44.1 °F 71% 29.55 in 10.0 mi WNW 4.6 mph - N/A   Overcast
1:53 PM 53.1 °F - 45.0 °F 74% 29.60 in 10.0 mi West 9.2 mph - N/A   Overcast
2:53 PM 54.0 °F - 43.0 °F 66% 29.65 in 10.0 mi West 8.1 mph - N/A   Scattered Clouds
3:53 PM 54.0 °F - 44.1 °F 69% 29.70 in 10.0 mi SW 10.4 mph - N/A   Scattered Clouds
4:53 PM 50.0 °F - 44.1 °F 80% 29.73 in 4.0 mi SW 18.4 mph 21.9 mph 0.01 in Rain Rain
5:53 PM 48.9 °F - 44.1 °F 83% 29.78 in 10.0 mi SE 5.8 mph - 0.02 in   Mostly Cloudy
6:53 PM 48.0 °F - 44.1 °F 86% 29.81 in 10.0 mi East 4.6 mph - N/A   Mostly Cloudy
7:04 PM 48.2 °F - 44.6 °F 87% 29.82 in 10.0 mi East 4.6 mph - N/A   Mostly Cloudy
7:31 PM 48.2 °F - 44.6 °F 87% 29.83 in 10.0 mi ESE 5.8 mph - N/A   Overcast
7:38 PM 48.2 °F - 44.6 °F 87% 29.85 in 8.0 mi South 8.1 mph - 0.02 in Rain Light Rain
7:53 PM 48.0 °F - 44.1 °F 86% 29.86 in 4.0 mi West 9.2 mph 20.7 mph 0.09 in Rain Rain
8:53 PM 46.9 °F - 43.0 °F 86% 29.89 in 10.0 mi ENE 4.6 mph - 0.08 in   Overcast
9:01 PM 46.4 °F 43.5 °F 44.6 °F 93% 29.89 in 9.0 mi ENE 5.8 mph - 0.00 in Rain Light Rain
9:53 PM 46.9 °F - 44.1 °F 90% 29.91 in 10.0 mi ESE 9.2 mph - 0.00 in Rain Light Rain
10:53 PM 48.0 °F - 45.0 °F 89% 29.94 in 10.0 mi ESE 6.9 mph - 0.03 in   Mostly Cloudy
11:53 PM 48.0 °F - 43.0 °F 83% 29.97 in 10.0 mi ESE 9.2 mph - 0.00 in   Mostly Cloudy